Vancouver Int'l Airport, British Columbia

Past 24 Hour Conditions

Date / Time
(PDT)
Conditions Temp
(°C)
Humidity
(%)
Dew Point
(°C)
Wind
(km/h)
Pressure
(kPa)
Visibility
(km)
21 October 2014
16:00 Mostly Cloudy 14 80 11 ESE 22 101.0 24
15:00 Light Rainshower 14 81 11 SE 21 gust 34 101.0 24
14:00 Mostly Cloudy 14 82 11 ESE 26 gust 37 101.0 24
13:00 Mostly Cloudy 14 86 11 ESE 27 101.1 24
12:00 Mostly Cloudy 13 88 11 SE 25 101.1 24
11:00 Mostly Cloudy 14 84 12 SE 21 gust 30 101.1 24
10:00 Mostly Cloudy 14 85 11 SE 18 101.0 24
9:00 Mostly Cloudy 12   92 11 ESE 17 101.0 24
8:00 Mostly Cloudy 12   94 11 SE 18 100.9 24
7:00 Light Rain 12   95 11 SE 17 100.9 24
6:00 Mostly Cloudy 12   95 11 ESE 15 100.9 24
5:00 Mostly Cloudy 12   93 11 ESE 14 100.8 24
4:00 Mostly Cloudy 12   95 11 ESE 6 100.8 24
3:00 Light Rain 12   95 12 E 15 100.8 19
2:00 Light Rain 13 94 12 ESE 13 100.8 16
1:00 Mostly Cloudy 13 94 12 E 16 100.8 24
00:00 Mostly Cloudy 13 93 12 E 17 100.8 24
20 October 2014
23:00 Cloudy 13 96 12 E 16 100.7 24
22:00 Mostly Cloudy 13 95 12 E 17 100.7 24
21:00 Light Rain 13 89 12 SE 9 100.7 19
20:00 Light Rain 14 90 12 SSE 4 100.7 16
19:00 Mostly Cloudy 14 87 12 ESE 12 100.7 24
18:00 Partly Cloudy 15 86 12 ESE 12 100.6 24
17:00 Mostly Cloudy 16 80 12 ESE 17 100.7 24
16:00 Partly Cloudy 17   79 13 ESE 17 gust 29 100.7 32
N/A Not available
↑ Highest temperature
↓ Lowest temperature

If you require additional historical weather information, please visit Climate Data Online.

Date modified: